Theta_e
320 320 319 320 321 322 322 322 322 322 322 321 320 318 318 318 317 318 319 319 318 318 317 317 316 317 316 316 316 315 314 314 313 313 311 307 308 310 320 324 326 326 327 329 331 334 329 328 326 325 325 325 324 324 324 324 324 323 323 322 321 321 320 319 318 319 318 317 317 317 316 315 314 314 315 315 314 314 314 313 314 314 313 313 313
321 319 318 319 319 319 321 321 322 322 321 321 320 318 317 317 316 316 318 318 318 318 316 317 318 318 316 317 316 317 317 315 313 313 313 311 309 308 316 321 324 326 327 327 328 331 329 328 327 326 325 325 324 324 323 324 323 323 323 323 321 321 321 319 318 318 318 317 317 317 316 315 314 313 314 314 313 313 314 313 313 313 312 313 313
321 320 319 318 318 318 318 318 318 318 319 320 318 318 317 317 317 316 316 317 317 317 316 317 316 316 317 317 318 317 317 316 314 314 313 312 310 307 310 317 321 325 327 326 327 330 330 329 328 327 326 325 324 324 323 323 323 323 323 322 321 321 321 320 318 318 317 316 316 316 316 314 314 314 313 314 313 312 313 313 313 312 312 312 312
321 319 319 318 317 318 318 318 318 318 317 319 318 318 317 317 317 317 316 316 316 316 317 316 316 317 316 317 318 318 317 316 315 314 313 312 310 308 307 312 317 321 324 326 327 328 330 331 330 329 327 326 326 325 324 324 324 324 323 323 323 321 321 321 319 318 318 316 316 316 315 314 314 314 313 313 313 313 312 312 312 311 312 312 311
321 320 317 318 317 317 317 318 318 318 318 318 318 318 317 315 315 316 314 314 315 316 317 316 315 316 315 317 318 318 318 317 315 314 313 313 311 309 309 308 310 316 318 322 326 327 328 331 331 329 328 327 327 326 326 324 324 324 323 323 322 322 321 320 319 318 318 318 317 316 315 315 314 313 313 313 313 313 312 312 312 311 311 311 311
323 320 318 317 317 317 317 317 318 318 318 318 318 318 317 315 314 313 314 313 314 315 315 315 314 314 314 316 317 318 318 317 315 314 313 314 313 311 312 310 308 311 313 317 320 324 326 328 331 330 328 328 328 325 325 325 324 323 323 323 322 321 321 321 319 318 318 318 318 317 316 315 314 314 314 313 313 313 312 312 312 311 311 311 310
323 322 319 318 317 317 317 318 318 318 318 318 318 317 317 316 314 313 313 313 314 315 315 315 314 316 316 315 316 316 316 317 316 314 313 314 314 313 312 311 310 309 311 310 313 318 322 326 328 331 331 328 327 326 326 325 325 324 324 323 322 322 321 320 319 318 318 318 317 317 316 316 315 314 314 314 313 313 312 312 312 312 311 311 311
323 322 320 319 318 318 318 318 317 317 318 318 317 317 316 315 314 314 313 313 314 314 313 313 313 314 315 315 314 315 315 315 316 315 314 314 313 313 313 311 310 309 310 310 310 312 318 321 325 328 331 330 327 327 326 326 326 325 324 323 323 322 320 320 319 318 318 318 317 316 316 315 315 315 314 314 313 313 312 312 312 312 312 311 311
324 323 321 320 319 318 318 318 317 317 317 316 316 317 316 316 314 313 315 313 312 312 312 312 313 313 314 314 315 314 314 315 315 315 315 313 312 312 312 312 310 309 308 311 312 312 314 317 321 324 325 327 329 327 326 326 326 325 325 324 323 323 322 320 319 318 318 317 316 316 316 315 315 315 314 314 314 313 312 313 312 312 312 311 311
326 325 323 321 320 319 319 319 318 317 316 315 315 316 316 316 314 313 314 313 312 312 311 311 312 313 314 315 315 314 314 315 314 312 314 313 312 312 313 313 312 311 309 309 311 312 313 315 317 318 318 319 325 328 326 326 326 326 325 324 324 323 322 321 319 318 317 316 316 316 315 316 315 315 315 314 314 314 313 312 313 312 313 312 311
327 326 325 323 320 319 319 319 319 318 317 315 314 314 315 315 315 313 313 314 313 312 312 312 312 313 314 315 315 315 315 315 314 313 313 314 314 313 313 313 312 312 311 309 308 310 311 311 311 314 316 316 322 325 326 326 326 325 324 324 324 323 323 322 320 318 318 316 316 316 315 316 315 315 315 315 314 314 314 313 312 313 313 313 312
328 328 327 325 322 319 318 319 319 319 318 316 315 314 314 314 314 314 313 312 312 313 313 312 312 312 312 314 315 315 314 314 314 315 314 314 314 313 313 313 312 312 312 311 309 309 310 311 309 311 312 314 316 321 324 325 326 326 326 326 324 323 323 322 320 319 318 317 316 316 315 316 316 316 316 315 314 314 314 314 313 312 313 313 312
327 327 327 325 325 323 319 318 319 319 319 318 318 316 315 315 314 313 313 312 312 312 313 312 311 309 311 311 313 314 314 313 315 315 314 314 313 313 312 312 312 311 312 311 310 309 310 311 311 311 311 311 312 314 318 321 321 326 326 325 326 325 323 322 322 320 319 319 317 316 316 316 316 316 316 316 315 314 314 314 313 313 313 313 312
326 327 326 327 326 325 323 320 319 319 319 319 318 315 315 315 314 312 313 313 313 313 314 312 310 309 306 306 308 311 313 312 313 315 315 315 313 313 312 312 311 311 311 311 311 310 310 311 311 311 311 311 310 311 312 314 316 322 325 324 324 325 324 322 323 321 320 320 319 318 317 316 316 316 316 316 315 315 315 314 314 314 313 313 313
328 326 327 326 326 326 324 322 320 319 318 318 318 317 317 316 315 314 312 312 313 313 314 315 311 309 305 305 304 306 308 309 312 314 315 315 314 313 312 312 312 311 311 310 310 310 309 310 310 310 310 310 310 310 310 310 311 313 321 323 326 325 325 322 322 321 320 319 319 319 318 317 316 316 315 316 316 315 315 315 314 314 314 313 313
328 327 326 327 326 325 325 324 322 320 319 318 317 317 317 317 316 314 314 311 312 312 314 315 314 310 304 307 301 300 299 305 310 313 315 315 314 314 312 312 312 311 309 309 310 310 309 309 310 310 310 309 309 309 308 309 310 311 312 315 320 324 324 323 323 322 320 320 320 320 319 318 317 317 316 316 316 316 315 315 315 314 314 313 312
328 328 326 326 326 326 325 325 323 320 319 319 318 318 318 318 317 316 314 313 312 313 313 315 315 316 311 303 301 299 303 300 302 307 311 313 314 314 313 311 310 309 308 309 309 309 309 309 309 309 309 309 308 308 308 308 309 309 310 310 313 320 323 323 324 324 321 320 321 321 320 318 317 317 317 316 317 316 316 316 315 315 314 314 313
328 328 327 325 326 326 325 324 323 321 319 319 319 318 318 318 318 317 316 315 314 312 311 312 315 315 315 313 308 304 301 300 303 301 300 312 313 314 313 312 312 309 308 308 308 308 308 309 309 309 308 308 308 307 307 307 307 308 308 309 313 317 320 322 322 323 322 320 320 321 321 319 318 317 317 317 317 316 316 315 315 315 314 314 313
327 328 327 327 326 326 326 325 324 323 320 319 318 318 318 318 318 317 317 316 315 312 311 312 312 314 315 315 311 304 303 304 303 300 301 300 307 310 311 312 312 310 308 308 308 308 308 308 309 309 308 307 307 306 306 306 307 307 309 310 314 315 317 318 320 321 322 321 320 320 322 321 319 317 317 317 316 316 315 315 315 315 314 313 312
327 327 327 327 326 326 326 325 324 324 321 319 319 319 319 319 318 318 318 316 315 313 312 313 311 313 315 314 313 312 308 305 301 305 299 295 300 303 307 310 311 311 311 309 308 308 308 307 308 308 308 307 306 306 305 304 304 304 306 311 314 314 316 317 316 317 318 320 320 320 321 321 321 320 318 317 316 316 315 315 315 315 314 314 313
326 326 327 327 325 325 326 325 324 323 320 320 319 319 318 318 317 317 317 317 316 316 314 313 313 312 313 312 313 313 312 310 308 304 303 298 303 303 304 303 306 309 310 311 311 310 309 309 308 308 307 307 306 306 305 304 303 302 303 309 313 315 316 316 316 315 315 315 316 317 318 319 321 320 319 318 318 316 315 315 314 314 314 314 313
324 325 325 326 326 325 325 325 324 324 320 321 320 319 319 318 318 317 317 316 317 316 315 314 313 313 313 313 312 312 310 310 308 307 305 306 306 302 303 303 304 308 310 310 311 311 311 310 308 307 307 306 306 305 305 304 303 302 302 305 308 311 315 315 315 314 314 314 313 313 315 315 318 321 321 319 317 316 315 315 315 314 314 314 313
323 323 324 325 325 324 324 325 324 322 320 321 320 320 319 319 318 318 317 317 316 316 314 314 313 312 313 313 313 312 311 309 309 309 307 304 304 306 307 304 306 307 307 309 310 311 311 310 309 308 307 307 306 305 304 304 302 302 302 303 306 310 312 313 314 314 314 314 313 312 313 314 317 319 320 320 318 317 317 316 316 315 314 312 312
322 322 323 324 324 324 323 324 323 323 322 322 322 321 320 319 319 318 317 317 317 315 315 314 313 312 312 313 313 313 313 312 311 310 308 307 306 305 306 303 301 305 303 304 308 310 310 310 310 309 308 307 306 305 304 304 303 301 301 303 305 308 311 312 314 314 314 314 313 313 312 312 314 316 318 319 319 318 318 318 316 316 314 314 312
321 321 322 323 323 323 324 323 323 323 323 323 322 322 321 320 319 318 317 316 316 316 315 314 314 313 312 313 314 313 313 314 313 309 309 309 306 304 305 303 305 304 304 301 302 304 308 309 310 309 308 307 306 304 303 303 303 301 299 300 303 305 307 310 313 314 314 314 314 313 312 312 312 314 316 317 317 317 318 317 317 316 314 314 312
321 321 323 323 323 323 323 324 323 323 323 323 323 323 322 321 320 319 318 318 317 316 316 315 315 314 314 312 311 313 314 314 313 311 309 308 306 305 304 299 303 306 299 299 300 302 304 305 307 308 307 307 306 305 303 303 302 300 298 299 301 304 307 309 311 312 313 313 313 313 312 311 312 312 315 316 316 316 316 316 316 315 315 314 313
322 323 322 322 323 323 323 323 323 323 323 322 322 322 322 322 321 320 319 319 318 317 316 316 315 314 314 314 312 312 313 314 314 313 312 311 310 309 306 304 301 300 301 298 300 303 308 299 305 305 306 306 306 305 303 302 301 300 298 299 300 300 302 305 308 310 311 312 313 313 312 312 313 313 314 315 315 315 314 313 311 310 311 312 312
323 322 323 322 322 322 322 322 323 323 323 322 322 322 322 322 322 321 320 320 319 318 318 317 316 316 315 315 314 313 313 313 314 314 313 313 312 311 309 307 304 302 295 301 299 304 305 307 299 303 305 305 306 305 302 301 302 299 297 299 299 299 300 303 306 309 309 310 312 312 312 312 313 313 312 313 313 312 312 311 309 309 308 308 309
323 322 322 322 322 323 322 323 323 323 323 322 322 322 322 321 321 321 320 321 319 319 319 318 318 318 317 316 315 315 315 314 313 313 314 314 313 312 312 310 309 305 303 301 303 302 300 306 305 302 302 304 305 304 303 302 301 300 299 298 299 299 299 301 304 306 307 309 310 311 312 312 312 312 311 311 311 311 309 309 308 308 308 308 308
322 323 322 322 322 318 322 322 323 323 322 322 322 321 321 321 321 321 321 321 320 319 319 319 319 319 318 318 317 316 316 315 314 313 312 314 314 313 312 312 311 308 307 304 305 303 301 300 305 304 299 301 303 302 302 303 301 300 299 298 298 299 299 300 302 305 306 308 310 310 310 312 312 312 311 310 310 310 309 310 309 308 308 308 308
321 320 320 321 321 321 322 322 322 322 322 322 322 321 321 320 320 321 321 321 320 319 320 319 319 318 317 317 318 317 317 316 316 315 313 313 314 314 313 313 312 311 310 309 305 308 309 304 303 305 303 301 302 303 302 302 301 300 299 298 297 297 296 298 299 303 305 307 307 308 309 311 312 312 311 310 310 310 310 309 309 308 307 307 306
321 321 321 320 320 320 320 321 321 321 321 322 322 321 321 320 320 320 320 320 320 319 319 319 319 319 318 317 316 317 317 317 316 316 316 314 314 313 313 313 313 313 312 311 308 309 307 308 306 305 306 304 302 301 301 301 300 296 298 298 297 294 295 296 297 299 301 303 304 305 307 308 309 311 311 310 309 309 309 309 308 308 308 307 306
320 319 319 320 320 319 319 319 320 320 320 320 321 321 320 320 320 320 319 319 318 319 318 318 318 318 317 317 316 317 317 317 317 317 316 316 315 314 314 313 312 312 312 311 309 309 306 301 304 307 305 306 300 300 300 299 297 296 295 296 295 294 294 294 295 295 298 301 303 305 305 305 306 308 309 309 309 309 308 308 307 306 306 305 304
318 319 318 319 319 319 318 319 319 319 320 320 320 320 319 319 319 320 319 318 317 317 317 316 316 318 317 316 316 316 317 317 317 315 316 316 316 315 314 313 313 312 313 312 310 310 310 299 300 297 297 300 303 298 299 298 297 293 293 293 293 294 294 294 293 294 296 299 301 303 304 304 304 304 305 305 307 307 307 307 305 306 305 304 303
316 317 318 318 318 318 318 318 318 318 319 319 319 319 318 318 317 317 318 317 316 315 315 316 316 316 315 315 316 316 317 315 315 316 314 314 314 313 313 312 312 313 312 312 312 310 309 307 301 302 298 296 301 300 297 298 296 293 292 292 293 293 293 294 292 292 295 297 300 301 302 303 303 303 303 303 304 305 306 306 305 304 304 303 303
315 316 316 318 317 317 317 316 316 317 317 317 316 316 318 317 316 317 316 317 317 316 316 316 315 315 315 315 316 316 315 314 315 315 314 314 313 313 313 313 313 313 313 312 312 311 311 310 296 303 298 297 295 293 294 293 292 291 291 291 292 292 292 292 292 291 293 296 298 299 300 301 301 301 301 302 302 303 303 303 302 302 301 301 301
315 314 313 313 315 315 317 317 317 316 316 316 317 316 316 316 316 317 317 317 317 317 317 317 311 316 316 315 316 316 315 314 314 314 314 313 313 313 313 313 313 313 313 313 312 312 311 310 304 296 294 293 289 288 290 291 289 289 289 289 289 290 291 291 291 291 292 295 296 297 298 299 300 301 301 301 301 301 301 300 300 300 299 298 298
313 313 314 312 312 314 314 315 316 316 315 314 315 316 316 315 315 316 316 317 317 317 317 317 317 316 316 316 316 315 314 314 313 313 313 312 312 312 312 312 312 312 312 311 311 310 310 311 310 300 289 293 289 288 289 291 290 288 287 287 287 288 288 288 288 289 289 290 291 293 295 296 297 299 300 300 300 300 299 299 298 298 297 297 297
310 311 310 310 310 311 313 313 314 315 315 313 315 315 316 316 316 316 316 317 317 317 317 317 317 317 317 316 315 315 314 314 313 313 312 311 311 311 311 311 311 310 309 309 306 306 307 306 302 296 294 290 291 291 287 289 289 290 290 287 287 287 286 287 287 287 288 288 290 291 292 292 293 294 296 297 298 298 298 298 298 297 296 296 296
308 309 310 311 310 308 311 312 314 313 313 313 314 315 315 316 316 316 316 316 316 316 316 316 316 316 316 316 316 315 315 315 314 314 313 312 311 310 311 310 309 308 307 304 302 303 304 303 302 298 293 292 287 286 286 287 287 287 288 290 291 289 286 286 287 287 286 286 286 286 290 291 292 293 294 295 296 296 296 295 295 294 293 295 295
306 306 308 309 308 309 309 310 311 311 312 313 314 314 313 314 316 316 317 316 316 315 315 315 315 316 316 316 316 316 313 304 304 305 306 306 312 310 309 309 308 308 307 305 303 302 302 302 301 298 294 290 291 288 286 286 288 292 290 288 289 290 288 286 286 286 286 285 286 286 286 286 286 286 287 287 287 291 291 292 291 292 293 294 294
302 301 301 302 305 308 309 309 309 310 311 314 307 305 306 313 316 317 317 316 315 315 314 314 314 315 315 315 314 302 301 299 299 300 301 302 303 309 312 310 309 307 304 302 302 302 301 300 300 298 294 293 292 290 290 289 290 287 287 287 288 288 286 286 286 286 286 286 285 285 285 285 285 285 283 283 284 285 285 285 285 287 289 292 292
299 298 297 300 303 305 307 309 310 309 311 313 304 305 304 303 311 316 316 316 315 315 314 314 314 313 314 315 315 307 301 299 301 298 300 300 300 301 302 304 305 309 303 300 301 301 299 299 299 297 297 296 294 291 291 292 288 289 289 288 289 287 287 287 288 286 286 286 285 285 285 284 285 284 282 282 282 281 283 283 287 288 289 290 290
296 293 296 299 302 304 306 307 308 310 311 303 304 304 303 302 301 309 315 316 315 315 315 314 314 313 312 312 312 313 311 309 309 305 299 297 298 299 299 300 300 301 303 304 301 299 298 298 298 298 297 297 297 291 291 290 289 288 288 287 287 288 287 287 289 289 286 286 285 284 283 281 283 282 281 281 281 281 282 284 287 289 289 290 290
290 293 296 297 299 300 301 303 305 308 310 304 303 302 302 302 302 303 312 314 315 315 315 314 314 314 313 311 311 311 313 298 298 306 307 304 297 297 298 298 298 299 301 301 302 305 302 299 298 298 297 298 297 295 293 292 292 288 288 287 287 287 288 289 289 288 283 286 285 283 281 281 281 281 280 280 280 280 281 286 288 289 289 288 288
290 291 291 293 295 296 297 298 300 302 304 301 301 301 300 300 301 302 309 312 312 313 314 314 314 313 313 310 308 307 305 304 305 306 307 307 306 303 301 301 302 299 297 297 298 297 299 303 301 300 300 299 299 299 295 292 290 289 287 288 287 287 287 289 288 287 284 286 285 283 279 278 278 278 279 278 277 277 277 285 288 288 287 287 287
289 290 290 290 292 293 295 295 296 297 300 298 298 298 299 299 299 298 305 308 310 311 312 313 313 313 312 311 309 308 307 305 304 302 302 303 303 303 302 301 301 301 301 300 299 299 299 301 301 301 301 299 300 297 294 292 293 293 292 290 289 288 287 284 282 283 283 284 284 284 280 277 275 278 277 275 276 276 276 286 287 287 287 287 287
287 287 287 289 291 292 293 293 294 295 296 296 296 296 297 298 298 300 302 304 306 307 309 310 310 310 309 309 307 305 304 303 299 297 299 302 303 299 296 296 296 297 298 297 298 299 300 301 301 301 302 300 298 296 293 293 293 291 289 288 288 287 286 286 285 280 281 282 283 281 275 275 275 278 276 274 276 276 276 276 286 286 287 287 287
286 287 287 288 288 289 290 291 292 293 293 293 294 295 296 297 297 300 301 301 303 304 306 306 307 306 304 303 303 304 303 303 299 299 298 297 300 297 295 295 295 294 295 294 294 295 296 296 297 297 297 297 297 297 295 294 292 291 289 288 286 287 286 285 284 281 281 280 280 279 277 275 276 274 276 273 274 273 272 272 275 286 286 286 285
287 287 287 287 287 287 288 289 290 291 291 291 293 294 294 295 295 298 299 299 299 300 301 301 301 301 301 294 294 301 302 302 298 298 298 296 297 296 294 293 292 292 292 291 291 291 292 293 293 293 294 295 295 296 295 294 293 291 291 290 288 287 287 287 285 283 280 278 280 278 279 276 276 274 275 272 274 270 269 271 272 278 284 284 284
287 287 287 287 287 287 286 288 288 289 290 290 292 293 293 294 293 296 296 297 296 297 298 299 299 300 300 295 292 294 297 298 298 298 298 296 298 297 296 294 293 292 293 291 290 289 288 288 289 289 289 290 292 292 291 293 292 290 293 292 289 288 288 287 284 280 279 278 280 279 279 274 277 276 276 273 270 270 266 267 269 269 273 273 275
Wind_Speed
7 7 6 7 7 7 7 6 6 6 6 6 7 7 7 6 6 7 6 6 6 6 6 4 4 3 5 4 4 4 5 4 4 4 5 5 5 6 8 8 6 6 5 6 7 14 12 13 13 12 13 13 12 11 11 10 9 9 8 8 7 7 6 5 5 4 4 4 3 3 3 2 2 1 2 2 2 1 2 2 3 4 4 5 5
7 6 6 6 6 7 7 7 7 7 7 7 7 7 7 7 7 7 7 7 6 6 6 5 5 5 4 5 5 6 6 5 4 6 5 5 6 6 9 9 9 7 7 5 7 10 14 13 12 13 14 13 13 12 11 11 10 9 9 8 8 8 7 6 6 5 4 4 4 3 3 2 2 1 1 1 0 0 2 1 2 3 3 5 5
6 6 6 6 6 7 7 7 7 7 7 7 7 7 6 7 8 7 7 7 7 6 6 6 5 5 5 6 6 6 6 6 5 5 4 6 6 5 6 10 10 10 8 8 8 9 14 13 14 13 14 14 14 14 13 12 11 10 10 9 9 8 8 7 6 6 5 5 5 4 3 2 2 2 2 2 1 1 2 1 1 2 3 3 5
7 6 7 7 7 7 7 7 7 6 6 6 6 6 6 6 7 7 7 7 6 6 5 6 7 6 5 6 7 7 7 6 6 6 5 4 5 6 5 6 10 11 10 10 10 9 10 15 15 14 14 15 15 15 14 13 12 11 10 10 10 9 9 8 7 7 7 6 6 5 4 4 3 3 2 3 3 3 2 2 1 1 3 2 3
7 7 6 7 8 8 7 8 7 7 6 6 6 6 6 6 7 6 6 6 6 7 5 6 6 7 5 6 6 7 6 5 6 6 5 4 5 6 6 5 4 9 11 11 11 10 10 13 16 16 15 16 17 15 16 15 14 13 12 11 10 10 10 9 8 7 8 7 7 6 5 5 4 5 5 4 5 4 4 3 2 2 3 2 2
7 6 6 6 7 8 8 8 7 7 7 7 7 6 7 6 7 6 7 7 7 8 7 7 6 6 6 5 6 7 6 6 6 6 6 6 6 5 6 6 6 5 6 11 11 10 10 11 15 17 16 16 17 14 16 15 15 14 13 12 11 11 10 10 9 8 8 8 8 7 6 6 6 7 7 6 5 5 5 5 4 3 4 3 3
8 8 6 6 7 8 8 8 7 7 7 7 7 7 7 8 7 7 7 7 7 8 7 7 6 6 7 5 6 6 5 6 6 6 6 6 6 5 6 6 6 6 6 6 9 12 11 11 13 17 18 17 16 17 18 17 16 15 14 13 12 12 11 10 9 9 9 9 9 8 7 7 8 8 8 8 7 6 6 6 6 5 5 4 4
9 8 8 7 7 8 8 7 8 7 8 8 7 8 8 7 7 7 7 7 7 7 5 6 5 6 6 6 5 6 6 7 7 6 6 6 6 6 6 6 6 6 6 7 7 8 13 12 12 12 16 18 17 17 17 18 17 16 15 14 14 13 12 11 11 11 10 10 9 8 9 9 10 10 10 9 8 7 7 7 7 6 5 5 5
10 9 8 8 7 8 7 8 8 8 8 8 8 8 8 8 7 7 7 7 7 6 6 5 6 6 6 6 6 6 7 7 7 7 6 6 7 7 6 6 7 8 7 7 7 7 10 13 13 13 13 13 16 18 18 18 18 18 16 15 15 15 14 12 12 12 11 11 10 10 10 11 11 12 11 10 10 9 8 8 8 8 7 7 6
11 10 9 9 8 7 7 8 8 8 8 8 9 8 8 8 8 7 7 7 7 8 8 6 6 7 7 7 7 7 8 8 7 7 7 7 7 8 8 8 7 7 7 7 7 7 7 9 12 13 13 12 11 15 19 19 19 18 17 17 16 16 15 14 13 12 12 11 12 12 13 13 13 13 13 12 11 10 10 10 9 9 8 8 8
11 11 9 9 8 8 8 8 8 8 8 8 8 9 9 9 10 8 7 8 8 8 8 7 7 7 8 9 8 8 7 7 7 7 7 8 9 9 8 8 7 7 7 7 7 6 7 7 6 6 8 12 11 13 16 19 18 20 19 18 18 17 16 16 15 14 13 13 13 14 15 14 15 14 14 13 13 12 11 11 10 10 10 10 9
12 11 10 9 9 8 8 8 8 8 9 9 10 10 11 11 11 11 9 7 7 8 7 7 7 7 8 8 8 8 7 7 8 8 8 8 8 8 8 8 8 8 8 7 7 7 7 7 7 7 7 9 12 12 13 15 15 19 22 21 20 18 18 18 17 15 15 14 15 16 17 16 16 15 15 14 14 13 13 12 12 12 11 11 10
11 12 12 10 9 8 8 8 9 9 10 11 10 10 10 10 9 8 11 10 9 7 7 7 7 6 6 7 7 6 8 8 9 8 9 9 8 8 8 8 8 8 8 7 7 7 7 7 7 7 7 7 8 12 13 15 15 18 22 22 22 21 20 19 18 18 17 17 17 17 17 17 17 17 16 16 15 15 14 14 13 13 12 12 12
11 11 12 12 10 9 10 10 9 9 10 8 8 9 9 9 8 7 8 12 10 9 8 7 7 9 5 4 5 6 7 7 8 10 10 9 8 8 8 9 9 9 7 7 8 8 8 8 8 8 8 7 7 7 8 9 10 15 19 20 22 23 21 20 20 19 19 19 21 21 19 18 18 18 17 17 16 16 16 15 14 14 13 13 12
11 11 11 12 13 11 10 10 10 9 9 9 9 10 10 12 11 11 8 7 8 6 10 12 10 5 2 1 6 4 5 5 8 10 10 10 8 9 9 9 12 9 8 8 8 8 8 8 8 8 8 8 8 8 8 8 10 12 16 18 20 24 24 23 22 21 20 21 23 22 21 19 19 19 18 18 18 17 17 16 15 15 14 13 13
12 12 11 11 13 13 11 10 11 10 10 10 10 12 11 11 11 12 9 8 8 10 10 12 9 9 4 10 3 2 5 10 12 10 10 11 10 11 8 10 10 9 7 9 9 8 8 8 9 9 9 9 8 8 8 8 12 15 15 17 17 21 24 25 23 22 22 23 23 24 22 20 19 19 19 19 19 18 18 17 16 16 15 14 14
12 13 12 13 12 12 12 11 11 11 11 11 11 12 12 11 12 11 12 12 11 8 8 10 13 11 8 5 1 2 9 4 2 7 6 9 11 12 10 9 9 9 9 9 8 9 9 9 9 9 10 9 9 9 8 9 10 10 13 15 17 17 22 24 24 24 24 24 24 23 24 23 21 21 20 20 19 19 18 18 17 16 16 15 14
12 13 13 12 13 13 13 12 12 11 11 12 11 10 12 12 13 13 13 13 10 8 8 7 11 13 14 9 6 8 4 4 3 7 2 8 8 9 11 11 10 9 9 9 9 9 8 10 9 10 10 9 9 9 9 10 10 9 9 12 16 18 20 25 25 25 25 25 25 24 23 23 22 22 21 20 19 19 19 18 17 17 16 16 15
13 13 13 13 13 13 13 13 13 12 11 11 12 13 13 13 11 12 13 11 10 10 12 10 6 9 11 13 10 3 4 5 7 1 6 3 5 8 10 10 10 10 10 10 10 10 9 9 11 11 10 9 9 9 9 10 13 13 15 15 19 16 18 21 25 26 26 26 25 25 24 24 22 22 21 21 21 20 19 19 18 18 17 16 15
13 13 14 14 13 14 14 13 13 13 12 12 13 12 11 11 12 13 11 11 12 13 12 10 12 12 12 12 14 12 6 3 3 7 4 3 4 3 5 7 9 10 11 11 12 12 11 10 11 11 9 9 9 10 10 10 10 11 12 19 19 18 19 22 22 24 25 26 26 25 25 24 23 22 22 21 21 21 20 20 19 18 17 16 15
13 14 14 15 13 14 14 14 14 14 12 12 12 12 14 13 13 12 14 13 12 13 11 11 11 10 9 12 11 11 10 10 6 2 5 4 9 7 8 3 6 9 10 11 11 11 12 12 11 11 10 10 10 10 10 10 10 10 12 18 21 20 21 22 22 22 22 23 24 25 25 23 23 24 23 23 22 21 21 21 20 19 18 17 16
12 14 14 14 14 14 14 16 16 14 12 13 12 13 13 14 14 14 14 14 12 12 14 11 9 9 9 9 10 10 8 9 9 9 7 8 12 6 7 8 10 11 11 11 13 13 11 11 11 10 10 10 10 10 10 11 11 10 14 21 21 21 22 24 24 23 23 22 23 22 21 22 23 23 24 24 23 22 22 21 20 20 19 18 17
10 11 14 14 14 13 14 15 14 13 13 13 14 14 13 13 13 13 14 15 13 13 13 12 10 10 11 10 12 13 14 13 15 12 12 9 8 12 10 9 12 11 9 11 11 13 12 11 11 11 11 11 10 9 10 12 14 15 20 21 20 20 21 23 24 24 23 22 22 21 20 17 16 20 23 23 23 22 22 21 20 20 19 18 18
10 11 12 14 13 13 13 14 14 14 14 14 13 13 12 11 11 12 13 15 14 13 12 13 14 11 12 11 11 11 10 12 10 9 11 13 11 12 11 4 5 10 2 5 10 11 12 13 12 12 12 10 10 10 11 12 13 19 17 20 20 20 21 22 25 25 24 23 22 20 21 21 20 18 20 22 23 23 22 21 22 20 19 19 18
11 12 13 14 13 13 13 13 13 14 15 13 13 13 12 11 12 13 13 14 14 15 13 15 16 15 14 12 11 11 12 11 9 7 8 8 8 11 11 5 10 7 6 4 7 7 12 12 11 11 11 10 10 10 10 11 11 15 18 15 21 20 21 22 25 26 25 24 22 20 19 21 23 22 20 20 20 21 21 21 20 20 19 19 18
12 13 13 13 13 15 14 14 14 13 13 14 13 13 13 12 12 13 14 14 12 14 15 15 14 16 13 11 12 12 12 11 11 9 10 8 10 12 10 4 6 11 3 4 3 3 8 10 9 10 10 10 10 10 9 12 12 16 18 14 16 21 19 20 22 25 25 23 22 20 20 20 22 22 20 20 20 20 19 18 18 18 18 18 18
11 12 10 11 13 13 14 14 14 14 13 13 13 13 13 12 11 13 13 12 13 13 13 15 15 16 15 14 13 11 13 12 11 12 11 12 12 11 9 11 8 6 8 4 4 12 11 3 10 11 11 10 10 10 11 10 14 17 16 13 12 18 21 22 22 23 24 22 21 21 20 20 20 21 21 20 21 20 19 19 18 18 18 18 17
10 10 10 11 12 13 14 15 15 14 14 14 14 13 13 13 12 12 14 10 13 15 14 14 16 17 17 15 12 13 12 12 12 12 12 12 11 9 8 10 12 13 5 9 6 12 7 9 3 10 10 11 10 10 12 13 10 15 15 10 11 12 19 21 21 19 19 20 20 19 20 22 22 22 22 20 19 19 19 19 18 18 17 16 16
10 9 10 10 11 13 13 14 15 15 14 14 14 14 13 13 13 13 14 13 14 14 14 14 15 15 14 16 15 13 12 12 10 11 12 11 11 10 10 12 11 11 12 10 12 10 4 10 8 6 10 9 10 8 9 10 13 14 10 11 11 11 14 19 21 19 18 20 20 20 20 22 22 21 21 20 19 18 18 17 17 16 16 15 15
10 9 9 11 11 13 13 13 14 14 14 14 14 14 14 13 14 14 14 13 14 13 13 14 15 13 14 14 13 13 12 12 12 10 10 12 11 12 11 11 10 14 13 13 15 7 6 6 9 6 6 10 9 8 9 11 15 16 10 10 11 11 16 16 16 16 18 19 22 23 22 22 22 21 20 19 19 18 18 18 17 16 15 15 15
10 9 9 9 11 12 12 13 12 13 13 13 13 13 13 13 13 13 13 13 14 14 13 13 13 12 14 15 14 14 12 13 12 11 10 10 11 11 11 10 12 14 14 12 14 8 8 8 8 7 7 10 10 10 8 9 11 14 11 10 11 13 12 9 15 16 18 19 19 19 20 22 22 23 22 20 19 19 18 18 18 17 16 15 15
9 10 9 9 10 11 10 11 11 11 12 12 12 13 12 13 13 12 12 13 15 15 14 12 11 12 14 15 15 14 12 12 12 12 12 11 11 11 11 11 12 12 12 12 15 17 6 7 7 9 11 9 9 9 8 8 6 10 8 9 9 9 7 9 13 17 18 18 18 18 18 17 18 23 24 23 24 23 22 21 21 19 17 16 16
9 9 9 10 9 9 10 10 11 11 12 12 11 11 12 13 13 13 12 13 15 14 13 14 12 13 14 15 15 14 13 14 13 12 12 13 12 12 11 10 11 10 11 12 15 17 6 2 4 6 7 7 5 8 9 7 6 6 6 6 5 7 8 8 8 13 16 17 17 16 17 17 18 17 19 20 21 23 23 22 20 20 19 17 15
8 10 10 9 9 9 9 10 10 11 11 12 11 11 12 12 13 11 12 13 14 14 13 14 13 13 13 15 15 13 12 15 13 12 12 12 12 12 11 10 11 9 9 11 14 13 15 2 4 1 1 4 7 3 9 9 9 5 7 7 5 6 7 6 6 6 12 15 16 17 17 17 16 15 14 14 16 17 19 22 18 16 17 16 14
8 9 10 10 10 10 10 10 10 11 12 11 10 11 12 12 13 13 13 13 14 15 15 16 15 13 14 14 15 12 11 12 12 11 9 10 9 10 11 8 11 11 9 11 11 13 14 9 5 6 6 4 9 8 8 6 4 6 7 8 7 5 5 5 6 5 9 12 14 14 16 16 16 15 14 14 13 14 14 14 15 12 13 15 16
10 10 9 10 10 10 10 11 11 11 11 11 10 10 13 13 13 14 14 14 14 15 16 16 14 14 15 14 15 13 11 12 12 10 10 9 9 9 10 9 10 11 11 9 11 12 11 12 4 7 5 8 7 0 2 2 4 5 6 4 3 6 5 5 6 6 7 11 13 15 15 15 15 15 16 15 14 13 12 11 10 9 8 8 9
10 9 9 9 10 10 11 12 12 11 12 11 11 11 12 12 13 14 14 14 15 15 16 15 14 14 14 15 15 12 11 13 12 12 11 12 11 10 11 10 11 12 10 10 11 11 12 14 8 4 2 2 1 2 4 6 2 2 1 5 5 6 6 5 4 5 5 9 11 13 13 13 14 14 12 14 11 9 10 11 10 10 9 10 10
9 9 10 9 9 11 11 12 11 12 11 10 11 12 13 12 12 13 13 13 14 15 15 15 14 14 14 15 14 12 12 14 14 12 11 12 11 12 13 12 11 11 12 12 10 10 12 14 13 7 3 7 4 3 5 6 7 5 3 3 2 5 6 6 5 4 3 4 4 6 8 10 12 13 13 12 11 11 11 12 12 11 11 11 12
9 10 8 9 9 9 11 10 11 11 10 10 11 12 13 13 13 14 14 14 14 14 13 14 13 13 14 14 13 13 14 14 14 13 11 11 11 12 11 11 11 10 11 10 10 12 11 11 8 5 5 3 4 6 2 3 2 4 7 4 6 5 4 6 6 4 4 4 4 7 7 6 7 8 10 12 12 12 12 12 11 12 11 11 12
9 9 9 9 9 8 10 11 12 10 10 10 11 12 12 12 11 12 12 12 13 12 13 13 12 12 13 13 14 14 14 14 14 13 12 13 11 13 12 12 12 11 10 7 8 9 11 11 10 8 5 6 2 2 3 3 2 4 7 9 11 7 8 7 8 6 4 4 5 4 4 5 6 7 8 9 11 11 11 9 10 9 9 9 11
8 7 7 7 8 9 10 10 10 9 10 12 11 11 10 11 10 12 12 12 12 13 13 12 12 12 12 13 14 13 15 17 19 17 16 15 12 12 11 10 11 11 12 10 10 10 10 10 11 7 6 6 7 8 6 6 12 15 7 7 8 6 3 3 4 4 5 5 4 4 5 5 4 5 4 5 5 6 7 7 5 7 8 10 11
7 6 6 6 7 9 10 9 9 9 10 10 13 16 14 11 10 11 11 12 12 12 12 12 12 13 13 12 13 17 18 18 19 20 21 20 20 17 14 13 14 13 12 11 11 11 11 11 11 9 8 9 9 10 12 12 8 3 6 8 9 6 3 2 2 5 6 6 5 6 5 4 5 5 4 6 4 4 5 5 5 5 7 10 10
7 7 6 8 8 7 8 9 9 9 10 10 14 14 15 16 12 11 11 11 11 11 12 12 13 13 13 14 14 16 18 18 18 21 21 22 23 24 24 21 17 15 13 12 12 11 10 10 10 9 11 12 11 10 11 10 6 9 8 9 7 4 6 7 7 1 5 9 7 5 4 4 5 6 5 5 4 3 4 5 7 9 10 10 10
8 5 7 8 8 8 8 9 9 10 10 12 13 14 14 14 13 11 10 11 11 12 12 12 12 11 11 10 10 10 11 13 14 14 16 19 20 22 25 24 22 21 20 16 14 11 11 11 11 12 11 13 12 9 10 7 9 8 8 6 8 8 8 8 6 5 4 10 7 5 3 3 4 4 4 5 4 4 5 7 10 10 8 7 5
5 7 8 8 9 8 8 10 11 11 10 12 12 14 14 14 14 12 11 12 12 12 12 13 13 12 11 12 13 12 12 15 11 10 10 13 19 24 24 24 23 22 21 23 21 17 12 14 13 13 13 12 11 11 13 14 10 10 6 6 6 7 8 8 7 4 3 7 6 4 4 2 4 4 5 3 3 3 4 8 8 6 4 2 2
6 8 7 9 9 9 9 9 10 10 11 13 14 14 12 13 15 14 13 14 14 14 14 14 13 14 13 12 11 10 8 8 10 13 15 15 15 15 15 14 14 17 19 19 19 20 16 14 14 15 13 10 13 13 13 10 12 12 10 11 9 9 10 10 3 3 4 8 9 6 2 2 2 3 4 3 1 1 2 4 5 6 7 8 7
7 8 8 7 8 7 8 8 10 12 11 13 14 16 15 15 13 10 9 10 11 13 14 13 13 13 12 11 11 13 12 12 13 14 13 11 10 11 12 14 15 14 13 12 12 12 12 12 11 12 11 12 14 9 9 12 15 14 15 14 15 11 4 5 6 4 4 3 4 5 6 2 2 3 3 1 2 4 3 5 9 9 10 10 10
5 6 7 6 9 9 8 8 9 12 11 12 15 16 16 15 15 11 10 10 11 12 12 12 11 11 11 11 12 12 11 10 11 15 16 12 12 13 13 12 10 10 10 11 14 17 16 14 14 14 13 11 12 10 11 13 11 6 6 7 7 6 7 6 5 3 3 4 3 4 4 3 3 5 3 1 4 5 4 4 7 12 12 13 13
5 6 7 7 7 7 8 7 9 12 11 9 12 15 14 14 12 10 10 10 12 13 13 11 11 11 10 8 8 9 10 11 13 15 18 16 12 12 12 12 11 9 10 7 10 14 15 14 13 13 10 10 12 13 15 18 13 10 8 8 7 8 8 8 5 5 6 6 5 4 5 5 5 4 5 2 3 3 3 4 3 11 14 15 14
8 6 6 7 6 6 8 9 8 11 12 7 11 13 13 13 12 11 10 10 12 13 13 11 9 9 11 14 11 10 11 11 11 14 16 14 12 11 9 9 9 9 8 5 4 4 5 9 9 9 9 9 12 14 15 17 16 14 12 13 11 11 10 9 9 7 4 5 7 6 6 5 6 3 6 3 6 2 1 2 4 5 10 12 14
8 7 6 7 7 5 6 8 9 11 11 9 10 13 15 14 11 9 9 9 12 13 10 11 11 10 12 10 13 13 12 12 12 14 16 15 13 13 13 11 13 11 11 7 8 5 5 5 6 6 6 10 9 9 11 18 19 17 13 10 11 12 11 9 7 6 3 5 7 7 8 5 9 6 8 5 3 1 0 1 3 4 5 5 5
Wind_Direction
178 184 179 187 184 183 183 195 196 198 181 199 198 201 206 207 214 225 229 237 238 240 233 229 225 216 190 209 207 207 216 219 201 200 182 188 195 217 205 181 179 219 272 269 274 237 214 202 214 215 212 209 209 210 205 206 206 203 200 198 199 189 192 183 184 176 166 160 164 164 137 118 107 113 69 90 92 25 22 33 17 28 23 33 26
189 187 179 195 189 186 187 196 198 196 185 195 200 199 201 203 212 220 226 235 237 231 223 222 224 230 210 202 207 209 210 217 213 205 193 179 190 203 220 197 189 194 223 262 267 258 198 220 217 217 218 217 214 216 214 209 210 210 210 204 207 201 195 191 192 187 178 182 189 181 159 149 149 161 186 85 131 359 354 35 21 19 14 12 23
191 193 199 194 196 190 193 189 195 198 194 197 195 201 204 203 205 211 217 223 230 230 213 228 225 220 215 206 209 212 214 211 211 209 205 181 189 200 213 211 202 198 199 226 244 259 220 218 218 219 223 221 219 218 220 215 214 215 213 213 210 211 207 199 197 193 189 195 203 197 175 178 189 208 232 228 244 258 314 347 357 2 359 8 11
195 199 199 199 201 200 197 195 205 200 199 204 209 206 205 214 211 209 210 208 223 234 225 221 231 224 209 215 215 214 216 210 202 209 210 197 191 202 211 215 211 204 205 206 228 242 243 230 221 221 216 219 224 217 218 216 218 220 219 217 216 213 216 211 202 201 197 203 208 207 198 198 212 220 239 245 240 247 272 302 319 317 329 6 356
204 199 198 202 198 197 201 206 203 200 203 207 211 216 215 217 223 211 210 212 220 237 227 217 219 229 212 218 218 220 217 209 212 206 214 204 186 196 207 214 224 216 210 211 213 226 236 235 234 224 221 213 222 219 214 217 218 223 223 224 222 219 220 219 213 209 209 213 210 206 207 210 218 227 235 241 245 241 246 269 279 278 296 326 328
203 206 192 200 199 196 197 205 205 201 204 204 211 214 219 215 218 205 214 209 217 225 222 222 231 240 227 221 211 221 212 217 215 210 208 212 193 183 200 204 210 215 219 221 217 220 229 238 235 230 229 219 224 228 233 223 224 224 224 227 228 226 224 224 221 217 220 222 219 211 210 215 222 232 235 237 244 245 244 254 267 257 277 282 289
206 207 201 199 207 205 200 200 196 201 205 207 207 216 215 221 208 207 213 215 213 213 207 213 217 232 239 215 215 225 225 219 217 212 213 216 211 205 186 198 204 208 217 221 229 222 222 232 237 235 238 232 230 230 232 229 224 226 228 229 231 234 231 230 227 223 224 227 228 221 215 221 225 230 234 238 240 247 248 251 261 263 255 265 279
206 207 211 205 208 211 206 194 194 195 204 207 206 212 215 219 217 200 203 217 209 220 213 220 224 237 245 242 227 221 222 223 220 216 217 209 214 215 211 196 201 206 211 216 216 225 226 226 234 243 241 238 227 233 233 229 230 230 229 230 232 235 237 232 234 228 227 229 228 228 224 228 230 232 236 236 240 243 247 252 254 266 266 268 276
203 207 211 211 210 209 204 197 193 196 200 205 209 210 208 211 217 211 201 207 208 217 225 223 237 240 244 243 240 223 221 217 214 211 204 206 212 216 216 210 199 205 209 213 214 217 228 226 227 234 244 250 239 233 235 233 230 232 231 232 232 233 235 234 238 239 235 233 232 231 231 231 232 234 236 237 238 242 244 250 254 257 262 266 261
201 207 212 215 214 210 202 196 193 196 201 204 210 206 207 202 212 210 203 201 206 209 220 222 225 239 241 239 239 230 225 222 216 210 202 212 212 211 212 214 205 200 201 207 211 213 215 224 227 231 235 236 240 240 234 236 237 232 234 232 234 236 235 232 226 235 236 237 239 236 236 234 234 235 236 237 237 238 241 245 249 253 254 258 259
200 205 214 212 214 215 209 203 196 195 199 206 208 204 205 203 205 209 208 207 200 205 209 208 222 230 235 237 234 226 225 224 220 214 214 213 210 212 208 214 213 213 208 202 203 204 212 216 220 228 236 235 232 231 234 234 237 240 241 238 237 239 238 233 231 226 219 228 238 239 236 236 237 236 237 237 237 238 238 241 244 248 250 250 254
209 206 212 214 212 210 212 206 205 200 205 209 210 204 203 200 206 204 207 216 214 203 200 204 225 231 234 240 235 232 224 218 221 220 216 214 214 211 212 215 214 215 208 207 201 202 205 212 214 221 225 229 225 223 226 228 230 235 242 244 242 239 238 239 236 231 225 223 228 238 238 236 238 238 237 237 236 236 238 239 242 245 247 249 249
216 211 215 217 218 212 206 210 206 206 209 216 211 210 207 203 204 201 204 209 221 206 204 180 204 245 238 245 256 245 237 226 222 222 220 216 210 209 215 213 217 213 212 206 203 203 204 209 212 215 217 218 224 224 222 224 224 230 238 241 244 249 245 241 238 235 232 227 222 226 235 237 239 239 238 237 236 235 235 238 240 241 244 247 249
213 215 214 217 219 217 213 211 206 212 216 217 214 209 206 207 195 205 209 206 219 199 199 160 220 217 217 266 270 263 239 238 239 231 222 218 208 208 209 211 215 216 213 210 211 204 206 208 211 215 214 211 214 215 223 227 230 230 234 238 239 243 247 243 243 238 234 232 232 230 225 230 236 238 238 238 237 236 235 236 238 239 242 245 248
210 213 218 216 220 221 218 212 211 212 213 217 214 212 207 207 203 205 204 221 221 200 197 193 218 183 138 24 257 254 271 255 243 235 227 222 211 213 210 212 216 211 206 207 213 213 209 206 212 215 216 213 210 211 212 214 216 221 227 232 235 239 243 243 244 244 239 233 234 227 223 224 228 235 237 237 238 236 236 236 236 237 240 243 247
212 212 218 221 218 221 223 216 214 210 211 213 213 216 208 210 209 212 203 213 215 220 203 201 199 138 194 212 215 158 300 241 228 234 217 226 214 220 210 215 218 214 203 210 214 212 210 204 212 214 214 213 209 208 209 209 216 219 223 228 232 237 244 244 242 241 243 241 234 231 226 230 229 227 234 237 237 238 237 236 236 238 239 241 245
213 214 214 221 220 220 220 221 216 212 211 215 213 213 211 210 208 209 208 211 216 217 212 202 204 197 175 123 147 218 230 254 164 262 208 224 225 219 215 213 214 210 204 216 215 213 210 209 214 214 215 211 208 207 206 210 215 219 223 225 227 230 235 238 237 237 238 239 241 235 227 234 230 230 229 233 236 238 238 237 237 237 238 240 243
215 218 218 217 222 221 219 220 220 216 213 216 216 212 212 210 208 209 214 216 218 215 219 217 212 206 211 207 160 178 187 222 141 265 299 228 225 217 217 214 215 210 209 212 211 217 212 217 214 218 215 213 208 207 206 209 212 215 214 221 220 224 228 233 236 237 237 237 237 239 237 232 231 233 235 236 235 238 239 240 239 238 239 240 243
217 217 220 219 221 222 220 220 221 221 217 217 217 214 212 212 208 210 215 213 212 221 216 212 212 229 219 225 239 214 148 125 217 320 297 307 232 220 225 219 221 218 212 216 214 216 217 216 219 220 218 212 209 209 208 213 213 213 212 212 217 218 223 228 233 236 238 238 237 237 237 237 232 235 234 237 241 240 240 240 240 240 240 240 243
218 218 220 220 218 221 220 220 221 221 217 218 219 217 215 216 211 213 214 211 210 218 219 208 198 216 209 219 231 238 226 241 173 187 183 245 293 285 267 230 230 228 219 217 216 218 219 217 222 223 219 214 211 209 209 212 213 214 218 217 215 216 219 225 228 233 237 238 238 237 236 236 236 235 235 236 237 240 241 241 241 241 241 241 243
218 220 220 221 218 220 219 220 220 221 216 222 222 218 215 213 211 212 213 214 211 217 219 217 210 218 192 220 226 229 230 235 236 206 222 236 258 227 241 252 253 242 229 224 222 221 219 219 218 222 218 219 213 213 210 211 214 214 217 216 217 216 219 223 226 226 230 236 239 239 237 236 235 236 236 235 231 235 239 241 242 242 241 241 242
220 220 222 222 222 218 219 221 221 220 217 221 221 219 218 216 214 213 215 217 216 215 218 220 215 221 210 208 208 223 230 241 236 227 241 220 246 230 218 199 220 235 220 220 223 223 223 221 220 219 220 220 216 214 212 214 214 214 219 219 219 220 221 224 226 227 227 228 232 237 241 240 238 236 237 237 239 238 237 237 239 241 242 242 243
217 222 222 221 223 220 219 221 221 220 219 221 220 220 218 217 216 215 216 217 217 217 219 224 219 216 217 209 212 207 207 209 219 212 215 224 234 249 240 210 218 244 224 217 220 225 223 221 218 219 219 219 217 213 213 217 216 217 217 219 219 220 222 224 227 228 228 227 229 231 231 236 243 243 239 236 235 235 235 234 234 237 241 242 244
217 221 220 219 219 222 220 221 221 220 220 220 222 222 220 217 216 216 219 219 219 216 217 220 220 220 219 219 219 218 221 224 227 207 208 226 218 238 240 205 252 245 241 210 223 222 224 223 217 218 219 218 218 212 216 217 221 220 219 221 220 220 221 223 226 228 229 228 228 227 227 228 231 236 241 238 235 232 232 233 237 237 238 240 244
219 219 221 215 214 220 220 218 220 220 221 220 223 223 221 218 218 219 220 219 217 215 215 218 215 218 220 218 221 220 225 226 229 208 217 225 219 243 244 172 235 246 236 190 234 226 229 228 216 216 220 217 218 213 214 216 221 220 216 224 221 223 223 225 228 230 230 229 228 225 224 226 227 228 230 233 233 231 231 233 234 237 238 238 240
221 220 220 213 214 219 220 222 223 224 222 222 223 222 220 221 219 220 221 222 220 218 222 223 222 225 224 222 219 221 226 223 223 214 214 204 223 228 242 230 232 252 247 213 223 207 248 225 219 217 220 216 219 215 212 218 221 223 213 217 223 223 222 224 228 231 232 231 228 225 222 223 227 227 224 224 226 228 229 231 234 237 239 240 240
226 227 219 213 215 219 221 224 224 223 220 221 222 222 221 222 222 223 225 222 223 220 223 223 224 224 224 223 224 219 225 224 220 220 216 218 221 223 218 242 259 245 255 235 249 218 235 211 212 215 218 215 218 213 215 216 220 219 211 216 226 222 223 225 228 230 231 232 231 227 223 221 222 226 226 223 223 224 226 228 232 238 242 243 243
231 228 222 213 213 217 219 222 223 223 221 220 220 220 219 221 222 223 225 220 225 220 224 222 226 225 225 225 226 227 223 222 220 221 220 222 223 224 210 222 240 262 229 255 224 250 205 233 231 223 214 214 218 215 215 217 221 221 211 214 220 226 223 225 229 230 230 232 232 231 226 222 220 223 225 224 224 225 227 229 230 233 236 240 243
233 228 227 217 217 216 218 221 222 222 222 220 220 220 219 220 222 223 225 223 225 224 222 223 226 225 227 224 225 229 226 226 221 218 221 221 224 221 212 218 219 240 256 255 245 236 220 205 218 224 206 212 218 213 210 213 220 213 208 212 217 224 223 222 228 230 227 229 231 230 228 226 224 223 224 224 223 223 224 225 227 230 233 235 238
233 232 224 222 222 219 221 222 222 221 222 221 219 220 219 222 221 224 225 224 227 227 226 225 227 225 228 228 226 231 227 227 227 217 212 217 220 218 217 218 210 225 237 249 262 175 235 203 211 217 198 213 213 214 210 216 218 210 210 209 217 222 224 221 223 225 226 226 228 230 230 228 225 224 222 220 220 220 222 224 225 227 232 236 238
239 237 230 228 225 224 223 226 224 223 222 223 220 221 219 224 223 227 226 226 229 230 228 227 230 227 230 231 229 233 227 231 230 223 217 214 218 216 219 211 216 221 232 240 264 244 175 211 221 215 198 209 204 211 213 219 219 207 206 208 215 222 220 218 219 221 223 223 224 228 231 231 229 230 228 221 218 220 223 225 226 228 230 234 238
242 239 237 234 231 230 227 228 228 226 225 224 222 222 220 224 224 226 227 225 231 233 232 228 229 227 230 232 229 230 228 232 231 226 224 219 218 217 214 214 220 220 224 237 242 257 178 201 200 206 209 205 200 206 214 224 222 201 211 211 216 209 204 222 219 219 223 224 224 224 228 231 234 233 232 229 230 230 232 234 234 234 231 232 239
240 242 239 239 236 232 231 228 227 226 224 225 222 222 222 225 226 228 228 226 231 234 234 234 230 231 231 234 233 230 227 230 230 228 224 224 222 224 219 216 222 215 218 229 243 258 252 239 194 210 210 195 208 204 215 211 207 206 208 220 201 202 209 215 218 219 221 221 222 222 226 229 233 234 234 235 235 235 236 236 236 237 238 235 238
232 238 239 241 238 234 231 229 228 228 226 225 222 220 222 225 228 227 229 227 232 235 232 236 230 231 232 235 235 231 226 231 231 227 223 225 223 225 224 220 225 220 210 224 242 249 257 184 248 317 247 187 220 186 208 204 214 176 199 207 204 202 210 213 215 216 216 223 225 226 226 227 229 229 230 230 233 236 234 236 235 235 234 236 237
233 229 234 234 235 233 232 230 228 228 226 227 222 219 222 224 226 227 227 226 229 232 232 234 232 230 234 235 237 232 230 234 233 232 224 227 224 227 227 217 227 226 216 222 237 249 255 250 190 213 207 197 208 212 211 215 184 177 189 205 204 205 218 213 216 219 210 216 222 223 224 226 227 228 227 229 231 233 232 233 235 230 234 239 240
236 232 226 230 230 229 231 231 227 226 225 224 221 218 221 221 225 227 226 227 228 230 233 234 233 231 233 236 237 232 231 236 238 236 235 229 226 228 231 228 229 231 230 227 231 246 255 266 212 215 197 194 234 198 128 109 154 181 202 194 187 211 214 211 215 218 213 211 215 220 224 226 227 229 230 230 229 226 224 221 220 218 213 217 225
240 237 235 225 228 226 228 230 229 226 226 223 221 222 223 224 225 227 227 228 230 232 233 234 232 231 233 234 238 233 232 237 239 235 233 232 231 231 233 232 231 232 230 228 233 233 245 250 248 214 173 212 128 134 159 161 159 171 156 201 207 217 220 218 216 218 206 205 210 214 218 219 221 220 215 222 209 201 208 212 212 211 213 218 223
248 240 236 230 224 227 228 230 229 230 226 222 222 224 224 224 226 228 229 229 231 232 233 233 232 230 233 235 236 232 232 232 236 233 229 230 228 229 229 227 227 229 232 230 226 236 244 247 245 223 167 183 198 205 194 181 168 190 220 234 237 229 215 229 225 205 190 192 200 211 218 221 221 221 221 218 209 207 208 214 214 216 219 222 228
251 250 242 239 235 230 233 230 231 230 228 222 225 228 229 228 227 229 231 233 234 234 236 235 235 234 235 236 235 230 229 230 232 230 226 226 224 229 228 230 231 231 232 227 219 221 227 244 250 225 199 227 190 209 186 181 189 194 197 185 246 218 206 210 229 210 193 207 217 209 209 207 212 221 225 224 221 216 215 214 213 217 220 223 228
253 253 253 245 245 234 237 233 234 228 229 229 229 230 231 231 232 235 234 236 239 240 240 239 236 236 235 236 235 229 227 228 228 230 223 228 223 228 221 218 219 219 227 227 231 230 229 230 234 226 202 184 162 66 86 120 191 285 219 200 219 208 210 208 220 196 192 185 209 215 220 210 218 223 222 225 226 223 220 219 220 219 220 222 231
267 261 261 259 256 249 247 244 243 233 229 232 230 228 230 233 233 238 238 237 237 239 240 239 237 236 237 234 234 233 229 229 224 222 221 220 222 229 226 220 225 222 226 222 224 224 229 230 235 222 202 187 200 173 167 183 201 213 179 179 228 228 186 195 233 203 184 186 201 199 217 198 201 215 208 224 233 228 232 226 221 224 225 233 240
287 289 291 281 267 262 261 256 248 243 240 240 237 230 223 224 228 233 237 239 237 238 239 241 239 234 233 233 236 236 236 233 231 228 223 217 214 216 218 213 218 220 222 220 221 221 223 224 228 215 211 214 199 199 201 213 204 96 146 177 212 210 135 221 262 212 185 177 180 211 213 178 192 208 193 223 223 208 224 224 221 210 223 236 244
292 295 301 296 283 276 270 268 263 252 247 246 242 234 232 229 229 235 237 242 241 242 241 241 243 239 237 233 231 222 222 226 225 222 222 223 225 225 226 222 214 210 212 215 220 215 217 224 224 213 218 221 216 200 208 207 184 193 191 190 196 151 183 189 225 213 189 172 188 198 205 176 177 204 205 217 211 212 216 220 221 223 230 237 243
287 301 294 279 281 283 283 279 271 264 259 254 250 249 242 236 231 239 247 248 245 245 245 243 244 241 240 240 240 240 232 228 223 223 229 232 232 232 233 233 228 216 208 204 212 216 216 221 220 218 211 219 216 181 207 185 197 197 201 175 186 185 183 201 208 206 185 168 164 180 182 134 186 192 204 221 200 211 212 214 219 222 225 226 231
301 292 282 289 284 283 277 278 279 279 277 272 265 259 254 249 242 237 252 253 256 255 250 249 249 247 243 238 236 230 229 223 229 239 241 238 236 237 236 233 229 222 221 221 216 211 205 215 221 221 211 213 209 207 198 200 181 184 169 182 190 199 202 203 206 170 167 174 136 146 167 186 168 180 208 229 193 203 214 212 210 208 196 162 98
291 285 284 279 280 281 281 281 279 278 275 284 293 289 281 267 259 247 246 246 246 250 248 244 242 241 239 238 241 242 240 231 228 227 229 230 227 230 235 235 235 237 238 236 233 229 220 216 217 224 221 199 213 212 202 164 160 184 175 200 191 194 200 207 166 121 113 171 168 145 104 220 168 150 196 266 202 174 193 190 149 111 93 95 98
288 281 284 285 277 275 277 276 279 279 277 284 285 286 292 291 286 273 262 260 254 252 253 255 254 251 248 247 247 249 242 228 223 213 225 233 239 238 233 231 229 227 223 223 224 229 231 233 229 229 224 209 220 207 168 179 186 187 187 191 188 188 140 77 57 64 120 181 143 129 167 191 117 135 203 192 95 61 19 84 101 101 106 109 110
278 280 281 269 276 277 272 273 273 274 273 276 278 280 280 280 283 281 271 267 264 261 258 252 253 256 253 243 239 237 235 234 237 228 230 229 224 229 228 230 232 232 232 227 224 223 221 219 220 222 222 210 204 189 175 180 188 155 102 76 98 118 142 156 160 151 160 207 188 143 113 171 177 126 154 57 87 72 46 43 95 110 114 110 104
281 279 274 272 271 275 276 268 269 273 276 273 270 271 272 271 272 268 267 264 263 264 262 261 255 256 254 247 244 245 243 241 227 217 226 226 235 233 232 230 226 220 230 228 243 246 244 242 240 238 228 209 199 190 183 184 178 158 133 129 157 149 152 177 168 156 199 170 213 154 122 136 174 131 115 54 83 98 67 60 66 113 110 105 103
299 281 275 281 269 261 268 269 261 276 282 286 279 279 276 269 259 261 262 264 264 258 260 258 258 259 254 245 240 243 243 243 232 221 223 219 232 235 232 239 245 242 244 221 230 245 233 227 229 227 220 208 200 192 188 184 171 158 160 182 176 165 186 183 176 179 137 179 197 158 123 168 148 144 115 129 77 28 27 45 55 58 93 99 98
284 292 288 284 281 260 252 263 266 266 279 282 272 271 269 266 260 260 262 259 262 262 265 266 256 250 252 243 237 238 242 248 237 227 226 218 225 224 219 220 230 232 232 195 206 190 198 198 211 190 206 203 197 190 194 187 177 181 188 179 156 173 178 182 150 114 123 245 213 170 150 165 149 194 150 125 78 334 331 5 63 74 79 74 74